Location: San Pelegr�n
(42.1868°N, 0.0079°E)
Time: 04:44:54
(UTC+00:00)

Cosmos-2242 - Pass Details

Date: 24 January 2020
Orbit: 590 x 618 km, 82.5° (Epoch: 16 February)

Event Time Altitude Azimuth Distance (km) Brightness Sun altitude
Rises 17:27:10 0° 2° (N) 2,867 6.2 -4.9°
Reaches altitude 10° 17:29:38 10° 13° (NNE) 1,953 5.3 -5.3°
Maximum altitude 17:33:26 30° 75° (ENE) 1,092 3.8 -6.0°
Drops below altitude 10° 17:37:11 10° 137° (SE) 1,926 5.4 -6.6°
Sets 17:39:35 0° 148° (SSE) 2,819 6.3 -7.0°
